Tracking 23732 objects as of 28-Sep-2021
HD Live streaming from Space Station
objects crossing your sky now

COSMOS 637

Track COSMOS 637 now!
COSMOS 637 is classified as:


NORAD ID: 7229
Int'l Code: 1974-017A
Perigee: 35,485.7 km
Apogee: 35,815.7 km
Inclination: 5.2 °
Period: 1,428.8 minutes
Semi major axis: 42021 km
RCS: 2.5118 m2 (large)
Launch date: March 26, 1974
Source: Commonwealth of Independent States (former USSR) (CIS)
Launch site: TYURATAM MISSILE AND SPACE COMPLEX (TTMTR)
aabbcc
Your satellite tracking list
Your tracking list is empty




NASA's NSSDC Master Catalog

Two Line Element Set (TLE):
1 07229U 74017A   21270.83126620 -.00000353  00000-0  00000-0 0  9991
2 07229   5.2117 287.7104 0039268  16.2568 104.2271  1.00784152104834
Source of the keplerian elements: AFSPC